{"data":{"norad_id":45397,"epoch":"2026-05-25T04:45:34.233696Z","epoch_age_seconds":53770,"freshness":"FRESH","line1":"1 45397U 20019AP  26145.19831289  .00033980  00000+0  49360-3 0  9996","line2":"2 45397  53.0524 121.9702 0002729  52.5287 307.5971 15.55500703341944","mean_motion":15.55500703,"eccentricity":0.0002729,"inclination_deg":53.0524,"raan_deg":121.9702,"arg_perigee_deg":52.5287,"mean_anomaly_deg":307.5971,"bstar":0.0004936,"rev_number":34194,"period_min":92.574692973315,"perigee_km":398.8475940361,"apogee_km":402.54748192693,"semimajor_km":6778.8345379815,"source":"CELESTRAK","updated_at":"2026-05-25T13:38:16.418248Z"}}